Flag for Canada Weather past 2 weeks in Conception Bay South, Newfoundland and Labrador, Canada

Now
68 °F

Scattered clouds.


Feels Like: 68 °F
Forecast: 59 / 74 °F
Wind: 23 mph from West

Location: St. John's

Current Time: Aug 27, 2014 at 10:36:15 AM

Latest Report: Aug 27, 2014 at 9:30 AM


Visibility: 15 mi

Pressure: 29.89 "Hg

Humidity: 78%

Dew point: 61 °F

Location of Conception Bay SouthLocation

Historic Weather in Conception Bay South — Graph

°F

Conception Bay South temperature yesterday

Maximum temperature yesterday: 59 °F (at 9:30 PM)
Minimum temperature yesterday: 54 °F (at 4:30 AM)
Average temperature yesterday: 56 °F

Past Weeks' High & Low Weather Summary

 TemperatureHumidityPressure
High72 °F (Aug 19, 1:30 PM)100% (Aug 12, 9:30 AM)30.22 "Hg (Aug 12, 9:30 AM)
Low50 °F (Aug 25, 12:30 AM)61% (Aug 25, 2:30 PM)29.68 "Hg (Aug 19, 8:30 AM)
Average59 °F92%30.02 "Hg
* Reported Aug 12 9:30 AM — Aug 27 9:30 AM, Conception Bay South, Weather by CustomWeather, © 2014

Note: Actual official high and low records may vary slightly from our data, if they occured in-between our weather recording intervals... More about our weather records

Advertising

Conception Bay South weather history for previous 24 hours

 ConditionsComfort  
Time TempWeatherWind HumidityBarometerVisibility
9:30 AM
Aug 27
68 °FScattered clouds.23 mph78%29.89 "Hg15 mi
8:30 AM64 °FScattered clouds.18 mph83%29.92 "Hg15 mi
7:30 AM61 °FScattered clouds.21 mph94%29.93 "Hg15 mi
6:30 AM59 °FPassing clouds.20 mph94%29.95 "Hg15 mi
5:30 AM59 °FPassing clouds.20 mph94%29.95 "Hg15 mi
4:30 AM59 °FPassing clouds.22 mph94%29.96 "Hg15 mi
3:30 AM59 °FPassing clouds.21 mph94%29.97 "Hg15 mi
2:30 AM59 °FClear.20 mph94%29.99 "Hg15 mi
1:30 AM61 °FPassing clouds.20 mph94%30.01 "Hg15 mi
12:30 AM59 °FPassing clouds.15 mph100%30.04 "Hg15 mi
11:30 PM
Aug 26
59 °FPassing clouds.14 mph100%30.07 "Hg15 mi
10:30 PM59 °FPassing clouds.9 mph100%30.09 "Hg15 mi
9:30 PM59 °FPassing clouds.12 mph94%30.11 "Hg15 mi
8:30 PM57 °FPartly cloudy.9 mph100%30.11 "Hg15 mi
7:30 PM57 °FMostly cloudy.10 mph100%30.12 "Hg12 mi
6:30 PM57 °FLow clouds.12 mph100%30.13 "Hg8 mi
6:21 PM57 °FLow clouds.12 mph100%30.13 "Hg8 mi
5:30 PM57 °FLow clouds.13 mph94%30.14 "Hg12 mi
4:30 PM57 °FLow clouds.12 mph94%30.15 "Hg15 mi
3:30 PM55 °FLow clouds.12 mph94%30.17 "Hg15 mi
2:30 PM57 °FOvercast.9 mph88%30.19 "Hg15 mi
1:30 PM55 °FOvercast.9 mph94%30.20 "Hg15 mi
12:30 PM57 °FOvercast.8 mph88%30.21 "Hg15 mi
11:30 AM57 °FOvercast.8 mph88%30.22 "Hg15 mi
10:30 AM55 °FOvercast.8 mph94%30.21 "Hg15 mi
Weather by CustomWeather, © 2014

See weather overviewHow to use our weather pages